Wind_Speed
41 41 41 41 41 41 41 41 41 40 41 41 41 41 41 41 42 42 42 42 42 42 42 42 41 40 39 38 39 42 45 48 49 50 49 49 49 49 49 50 51 51 51 50 50 49 48 48 48 48 49 49 49 49 48 46 46 46 46 46 46 46 47 47 47 47 47 47 47 48 48 48 48 48 48 48 48 48 49 49 49 50 50 50 50 50
43 42 42 42 42 42 42 42 42 42 42 42 42 42 42 42 43 43 43 43 43 43 42 41 39 38 37 39 41 44 46 49 50 51 51 51 51 51 51 52 53 53 53 52 51 49 48 47 47 47 47 48 48 48 47 46 46 46 46 47 47 47 48 48 48 49 49 49 49 49 49 49 49 49 49 49 49 49 49 50 50 50 50 50 50 50
43 43 44 44 43 43 44 44 44 44 44 44 44 44 44 44 44 44 43 43 43 43 43 42 40 38 38 40 43 45 48 50 51 52 53 54 54 54 55 55 56 56 56 54 52 50 48 47 46 46 46 47 47 47 47 47 47 47 47 48 48 49 49 49 50 50 50 50 50 50 50 50 49 49 49 49 49 49 50 50 50 50 50 50 50 50
44 45 45 45 45 45 46 46 45 45 45 45 45 45 45 45 45 45 45 44 44 44 44 44 43 41 41 43 45 47 49 51 52 53 54 56 57 58 59 59 60 59 58 56 53 51 49 48 47 46 46 46 47 47 47 48 48 48 49 49 49 50 50 50 50 50 50 50 50 50 50 50 50 50 50 49 50 50 50 50 50 51 51 50 50 50
46 46 47 47 46 47 47 47 47 47 47 46 46 46 46 46 45 45 45 45 45 45 45 45 45 45 45 46 47 48 50 52 54 55 57 58 59 60 61 62 62 62 59 56 53 51 49 48 48 47 47 47 48 48 49 49 50 50 50 51 51 51 51 50 50 50 50 50 50 50 50 50 50 50 50 50 50 50 50 51 51 51 51 50 50 50
47 47 47 47 47 47 47 47 47 47 47 47 47 47 46 46 46 46 45 45 45 45 45 45 45 46 47 48 49 50 51 53 55 56 58 59 61 62 62 63 63 61 59 56 53 51 49 49 48 48 48 49 49 50 51 51 52 52 53 52 52 51 50 49 49 49 49 49 49 50 50 50 50 50 50 50 50 51 51 51 51 51 50 50 50 50
47 47 47 47 47 47 47 47 47 47 47 47 47 47 47 46 46 46 46 45 45 45 45 45 46 46 47 48 50 51 53 54 55 57 58 59 61 61 61 61 60 59 57 55 54 52 51 50 49 49 49 50 51 51 52 53 54 54 54 54 53 51 49 47 47 47 48 49 49 50 50 50 50 50 51 51 51 51 51 51 51 50 50 50 49 49
46 46 46 46 46 47 47 47 47 47 47 47 47 47 47 46 46 46 46 46 45 45 45 46 46 47 48 48 49 51 52 53 55 56 57 57 58 58 58 57 57 56 55 54 53 52 52 51 50 50 50 50 50 51 52 52 53 54 54 54 52 49 47 46 46 47 48 49 49 50 50 50 51 51 51 51 51 51 51 51 50 50 50 49 49 49
45 45 45 45 45 45 45 46 46 46 45 46 46 47 46 46 46 46 46 46 46 46 46 46 47 47 48 48 48 49 50 51 52 52 53 53 54 54 53 53 53 53 53 53 53 52 52 51 50 49 49 49 49 49 50 50 51 52 52 51 50 47 46 45 46 47 49 50 50 51 51 51 51 51 51 51 51 51 50 50 50 49 49 49 48 48
43 43 44 44 44 44 44 44 45 45 44 44 45 46 45 45 45 45 46 46 46 46 46 46 47 47 48 47 47 47 48 49 49 49 50 50 50 50 50 50 51 51 52 53 53 52 51 50 49 48 48 47 47 47 47 48 48 49 49 48 47 46 46 46 47 48 50 50 51 51 51 51 51 51 51 50 50 50 50 50 49 49 48 48 48 47
42 42 42 43 43 43 43 43 44 44 43 43 44 44 45 44 44 44 45 46 46 46 45 46 47 47 47 47 48 48 48 48 49 49 49 49 50 50 50 50 51 52 52 52 52 51 49 48 47 46 46 45 45 45 45 46 46 47 47 46 46 46 47 47 48 49 50 50 50 50 50 50 50 50 50 50 50 49 49 49 48 48 48 47 47 47
41 41 41 42 42 42 42 42 42 43 42 42 43 43 44 44 43 43 44 45 45 44 44 44 45 46 46 46 47 48 48 48 49 50 50 50 51 51 51 51 52 52 52 51 50 49 47 45 44 43 43 43 44 44 45 45 46 46 47 47 47 47 48 48 49 49 50 50 50 50 50 50 50 49 49 49 49 49 48 48 48 47 47 47 46 46
40 40 40 41 41 41 41 41 41 41 41 41 41 42 43 43 43 42 43 44 44 44 43 43 44 45 45 45 46 47 48 48 48 49 49 49 49 49 49 50 50 50 49 48 47 46 43 41 41 41 42 43 43 44 45 46 46 47 47 47 48 48 49 49 49 49 49 49 49 49 49 49 49 49 49 48 48 48 48 47 47 47 46 46 46 45
39 39 39 39 40 40 40 39 40 40 41 40 40 41 42 43 43 42 43 43 44 44 43 43 44 45 45 45 45 45 46 46 47 47 46 46 45 45 45 45 45 45 44 43 43 42 41 40 40 41 42 43 44 45 46 46 47 47 48 48 48 49 49 49 49 49 49 49 49 49 49 49 49 48 48 48 48 47 47 47 46 46 46 45 45 45
37 37 37 37 38 38 38 38 38 39 40 40 40 40 41 42 42 42 42 43 44 44 43 43 44 45 45 44 44 44 44 45 45 45 43 42 42 41 41 40 41 41 41 41 41 40 40 40 40 42 43 44 45 46 47 47 48 48 49 49 49 50 50 50 50 50 50 49 49 49 49 49 48 48 48 47 47 47 46 46 46 45 45 45 44 44
34 34 34 35 36 36 36 36 37 38 39 39 39 40 41 41 42 42 42 42 43 43 43 43 44 45 45 45 44 43 44 44 45 44 42 41 40 39 38 38 39 40 40 41 41 41 41 42 42 43 45 46 46 47 48 48 49 50 50 50 50 50 50 50 50 50 50 49 49 49 49 48 48 47 47 47 46 46 46 45 45 45 44 44 44 43
32 32 32 33 34 34 34 34 35 36 38 38 39 40 40 41 42 42 42 42 43 44 44 44 45 45 46 46 45 44 44 44 45 45 43 41 40 39 38 38 39 40 41 41 41 42 42 43 44 45 45 46 47 48 48 49 50 50 50 51 50 50 50 50 50 49 49 49 49 48 48 48 47 47 46 46 45 45 45 45 45 44 44 44 43 43
31 31 31 32 32 33 33 33 34 35 36 37 38 39 40 40 41 41 42 42 43 44 45 45 46 46 46 46 46 45 44 44 45 46 45 44 43 41 40 39 40 40 41 41 42 42 43 44 45 45 46 47 47 48 49 49 49 50 50 50 50 49 49 49 49 49 48 48 48 48 47 47 46 46 46 45 45 45 45 44 44 44 44 43 43 42
31 30 30 31 31 32 32 33 33 34 35 36 37 38 39 39 39 40 40 41 42 42 43 44 44 44 44 44 45 45 44 44 45 46 46 45 44 44 43 41 41 41 41 41 41 42 44 44 45 46 46 47 47 48 48 48 49 49 49 49 48 48 48 48 48 48 48 47 47 47 47 46 46 45 45 45 45 45 44 44 44 44 43 43 42 42
31 31 30 31 31 32 32 33 33 33 34 35 36 36 37 37 38 38 39 39 40 40 40 41 41 42 42 42 43 44 44 44 45 46 46 45 45 44 44 42 41 41 41 41 41 42 43 44 44 45 45 46 46 47 47 47 47 47 47 47 47 47 47 47 47 47 47 47 47 46 46 46 46 45 45 45 45 45 44 44 44 43 43 42 42 42
31 32 32 31 32 32 33 33 33 33 34 34 35 36 36 37 37 38 38 38 39 39 39 39 40 40 40 41 42 43 43 43 44 46 46 46 46 45 44 43 42 41 41 41 41 41 42 43 44 44 44 45 45 45 46 46 46 46 46 46 46 46 46 46 46 46 46 46 46 46 46 46 45 45 45 45 45 44 44 44 43 43 42 42 42 42
32 32 32 32 32 32 33 33 33 33 34 34 35 36 37 37 37 38 38 38 38 38 39 39 39 39 40 40 41 42 42 42 44 45 46 46 46 45 44 43 42 42 41 41 41 41 42 43 43 44 44 44 44 44 44 44 45 45 45 45 45 45 45 45 45 45 45 45 45 45 45 45 45 45 45 45 45 44 44 43 43 43 42 42 42 42
32 32 32 32 32 32 33 33 34 34 34 35 36 37 37 37 38 38 39 39 39 39 39 39 40 40 40 40 40 41 41 41 42 44 45 45 45 45 44 43 42 42 41 41 41 41 42 42 43 43 43 43 43 43 43 43 43 43 43 43 44 44 44 44 44 45 45 45 45 45 45 45 45 45 45 45 44 44 44 44 43 43 43 43 43 43
32 32 32 32 32 32 33 33 34 35 35 36 36 37 38 38 38 39 39 39 39 40 40 40 40 40 40 39 39 39 39 39 40 41 43 43 44 43 43 42 42 41 41 41 41 41 42 42 42 42 41 41 41 41 41 41 41 42 42 42 42 42 43 43 44 44 44 44 45 45 45 45 45 44 44 44 44 44 44 44 44 44 44 45 45 45
31 32 31 31 32 32 33 34 34 35 36 36 37 37 38 38 38 38 39 39 39 39 39 39 39 38 38 38 37 37 38 38 38 39 40 41 42 42 42 41 41 41 41 40 41 41 41 41 40 40 39 39 39 39 40 40 40 40 40 41 41 41 42 42 43 43 44 44 44 44 44 44 44 44 44 44 44 44 45 45 45 45 46 46 46 46
30 31 31 31 32 33 33 34 35 35 36 36 36 36 36 36 37 37 37 37 37 37 37 37 36 36 37 36 36 36 37 37 38 38 39 40 40 40 40 40 41 41 41 40 40 40 40 39 38 38 37 38 38 38 38 38 38 39 39 39 40 40 41 41 42 43 43 43 44 44 44 44 44 44 44 44 45 45 46 46 46 47 47 47 47 47
30 30 31 31 32 32 33 33 34 34 34 34 35 35 35 35 35 35 35 35 35 35 35 35 35 35 36 35 35 35 36 36 37 37 38 39 39 39 39 40 40 40 40 40 40 39 38 37 36 36 35 36 36 36 36 37 37 38 38 38 39 39 40 41 41 42 42 43 43 43 44 44 44 44 45 45 46 46 46 47 47 47 48 48 48 47
29 29 30 30 30 31 31 31 31 32 32 33 33 34 34 34 34 34 34 34 34 34 35 35 35 35 35 35 35 35 35 35 36 37 37 38 38 38 38 39 39 40 40 39 38 37 36 35 35 34 34 34 34 34 35 35 36 36 37 38 38 39 39 40 40 41 42 42 43 43 44 44 45 45 45 46 46 47 47 47 47 48 48 48 47 47
28 28 29 29 29 29 29 29 30 30 31 32 33 33 33 34 34 34 34 34 34 34 34 34 35 35 35 35 34 34 34 34 35 36 37 37 37 37 38 38 38 38 38 38 37 36 35 34 33 33 32 32 32 33 33 34 35 35 36 37 37 38 38 39 40 40 41 42 43 43 44 44 45 45 46 46 46 47 47 47 47 47 48 47 47 46
28 28 29 29 29 29 30 30 31 31 32 33 33 33 34 34 34 34 34 34 34 34 34 34 35 35 35 35 34 33 33 33 34 35 36 36 36 37 37 37 37 37 37 37 36 35 33 32 32 32 32 32 32 32 33 33 34 35 35 36 37 37 38 39 39 40 41 41 42 43 43 44 44 45 45 45 46 46 46 46 47 47 47 47 47 46
29 30 30 30 31 31 31 32 32 33 33 34 34 34 34 34 34 34 34 34 34 34 34 34 34 34 34 34 33 32 32 33 34 35 36 36 36 36 36 36 35 36 36 36 36 35 34 33 32 32 33 33 32 32 32 33 34 34 35 36 36 37 37 38 39 39 40 40 41 42 42 43 43 44 44 44 45 45 45 45 46 46 46 46 46 46
31 31 32 32 32 32 33 33 33 34 34 34 33 33 33 33 33 34 34 34 34 34 34 34 34 34 34 33 33 32 32 33 34 35 36 36 35 35 34 34 34 35 35 36 37 37 36 34 33 33 33 33 33 33 33 33 34 35 35 36 36 36 36 37 37 38 38 39 40 40 41 41 42 42 43 43 43 44 44 44 44 45 45 45 45 45
31 32 32 32 32 32 32 33 33 33 33 32 32 32 32 32 32 32 33 33 33 33 33 33 33 33 33 33 33 32 32 32 34 35 35 35 34 34 34 34 34 34 35 36 37 37 37 36 35 34 34 33 33 33 33 34 34 34 35 35 35 35 35 35 36 36 37 38 38 39 39 40 40 41 41 41 42 42 42 42 43 43 44 44 44 44
31 31 31 31 31 31 32 32 32 32 31 31 31 31 31 31 31 31 31 32 32 33 33 33 33 33 33 33 33 32 32 32 33 34 35 34 34 34 34 34 34 35 35 36 36 37 37 37 36 36 35 34 33 33 33 33 33 33 33 33 33 33 34 34 35 35 36 37 37 38 38 38 39 39 39 40 40 40 40 41 41 41 42 42 42 42
31 30 30 30 30 30 31 31 30 30 30 30 30 30 30 30 30 31 31 31 32 32 32 33 33 33 33 33 32 31 31 31 33 34 34 34 34 34 34 34 34 35 35 36 36 37 37 37 37 36 36 34 33 32 32 32 32 32 32 32 32 33 33 33 34 35 35 36 36 36 37 37 37 38 38 38 38 39 39 39 39 39 40 40 40 41
29 29 29 29 30 30 30 30 29 29 29 29 29 30 30 30 30 31 31 31 31 32 32 32 32 32 32 32 32 31 31 31 32 33 34 34 34 34 34 34 34 35 36 36 37 37 37 37 36 36 35 34 33 32 31 31 31 31 31 31 32 32 32 33 33 34 35 35 35 35 36 36 36 37 37 37 37 37 37 37 38 38 38 38 39 39
28 28 28 29 29 29 29 28 28 28 28 28 29 29 30 30 30 31 31 31 32 32 32 32 32 32 32 32 31 31 31 31 31 32 33 34 34 34 34 34 35 35 36 36 37 37 37 36 36 35 34 34 33 32 31 31 31 31 31 31 31 31 32 32 33 33 34 34 34 34 35 35 35 36 36 36 36 36 36 36 36 36 37 37 37 37
27 27 28 28 28 28 27 27 27 27 28 28 28 29 29 30 30 31 31 31 31 31 31 31 31 31 31 31 31 31 31 31 31 32 33 33 34 34 34 35 35 35 36 36 36 36 36 35 35 34 33 33 32 32 32 31 31 31 31 31 31 31 31 32 32 33 33 33 34 34 34 34 35 35 35 35 36 36 36 36 36 36 36 36 37 37
26 26 26 26 26 26 26 27 27 27 28 28 28 28 29 29 30 30 30 30 30 30 30 30 30 30 30 30 30 30 31 31 31 32 33 34 34 35 35 35 35 35 35 35 35 35 35 35 34 34 33 33 32 32 31 31 31 31 31 31 31 31 31 31 32 32 32 33 33 33 34 34 34 35 35 35 35 36 36 36 36 36 36 37 37 37
25 25 26 26 26 26 27 27 27 27 27 27 27 28 28 28 29 29 29 29 29 29 29 29 29 29 29 29 30 30 31 32 32 33 33 34 34 35 35 34 34 34 34 34 34 34 34 34 34 34 34 33 33 32 31 31 31 31 31 31 31 30 30 31 31 32 32 33 33 33 34 34 34 35 35 35 36 36 36 36 36 36 37 37 38 38
25 25 26 26 27 27 27 27 27 27 27 27 27 27 28 28 28 28 28 28 28 28 28 28 29 29 29 29 30 31 32 32 33 33 34 34 34 34 34 33 33 33 33 33 33 33 33 33 33 33 33 33 33 33 32 31 31 31 31 32 31 31 30 30 31 31 32 33 33 34 34 35 35 35 35 36 36 36 36 37 37 37 38 39 39 40
25 26 26 26 27 27 27 27 27 26 26 26 27 27 27 27 27 27 27 27 27 28 28 28 28 29 29 30 30 31 32 32 33 33 33 33 33 33 33 32 32 32 32 32 32 32 33 33 33 33 33 33 33 33 32 31 30 31 31 31 32 31 31 30 31 31 32 33 34 34 35 35 36 36 36 36 36 37 37 38 38 39 39 40 41 41
25 25 25 26 26 26 26 26 26 26 26 26 26 26 27 27 26 26 26 27 27 27 28 28 29 29 30 30 30 31 32 32 32 32 32 32 32 32 32 32 32 32 32 32 32 32 32 33 33 33 33 33 34 33 32 31 31 30 30 31 32 32 32 31 31 32 33 34 34 35 35 36 36 37 37 37 37 38 38 39 39 40 40 41 42 42
24 24 24 25 25 25 25 25 25 25 25 25 26 26 26 26 26 26 26 27 27 28 28 29 29 29 29 30 30 30 30 31 31 31 31 31 31 31 31 31 32 32 32 32 32 32 32 33 33 33 33 33 33 33 32 32 31 31 30 31 32 33 33 33 33 33 34 34 35 35 36 37 37 38 38 38 39 39 40 40 41 41 41 42 42 43
22 22 23 23 23 24 24 24 24 24 25 25 25 25 26 26 26 26 27 27 27 28 28 29 29 29 29 29 29 29 29 29 29 30 30 30 30 30 31 31 31 32 32 33 33 33 33 33 33 33 33 33 33 32 32 32 32 31 31 31 32 33 33 34 34 35 35 35 36 36 37 38 39 39 40 40 40 41 41 42 42 42 42 43 43 43
21 21 21 22 22 23 23 23 24 24 24 24 25 25 25 26 26 26 26 27 27 28 28 28 28 28 28 28 28 28 28 28 28 28 29 29 29 30 30 31 31 32 32 32 32 33 33 33 32 32 32 32 32 31 31 32 32 32 32 32 33 33 34 34 35 35 36 36 37 37 38 39 40 40 41 41 42 42 42 43 43 43 43 43 43 43
20 20 21 21 22 22 22 23 23 23 24 24 24 25 25 25 26 26 26 27 27 27 27 27 27 27 27 27 27 27 27 27 27 27 28 28 29 29 30 31 31 31 32 32 32 32 32 32 32 31 31 31 31 31 31 31 32 32 33 33 33 34 34 35 35 36 37 37 38 38 39 40 41 42 42 43 43 43 43 44 44 44 44 44 44 43
20 21 21 22 22 22 23 23 23 24 24 24 25 25 25 25 26 26 26 26 26 26 26 26 26 26 26 26 26 26 26 26 26 27 27 28 28 29 30 30 31 31 31 32 32 31 31 31 30 30 30 30 31 31 30 31 31 32 33 33 34 35 35 35 36 36 37 38 39 39 40 41 42 43 44 44 45 44 44 44 44 44 44 44 44 43
20 21 22 22 23 23 24 24 24 24 24 25 25 25 25 25 25 26 26 26 26 26 25 25 25 25 25 26 26 26 26 26 26 27 27 28 28 29 29 30 30 31 31 31 31 31 30 29 29 28 29 29 30 31 31 31 31 32 33 34 34 35 36 36 37 37 38 39 40 41 41 42 43 44 45 46 46 45 45 44 44 44 44 43 43 43
21 22 22 23 24 24 24 24 25 25 25 25 25 25 25 25 25 25 25 25 25 25 25 25 25 25 25 25 25 26 26 26 26 27 27 28 29 29 29 30 30 30 30 30 30 30 29 28 27 27 28 29 30 30 31 31 32 32 33 34 35 36 37 37 38 39 39 40 41 42 42 43 44 44 45 46 46 46 45 45 44 43 43 43 42 42
21 22 23 24 24 24 25 25 25 25 25 25 25 25 24 24 24 24 24 24 24 24 24 24 24 24 25 25 25 25 26 26 26 27 27 28 29 29 29 30 30 30 30 30 29 29 28 27 27 26 26 28 29 31 31 32 32 33 33 34 35 36 37 38 39 40 41 41 42 43 43 44 44 45 45 46 47 47 46 45 44 42 42 42 42 42
Wind_Direction
284 284 284 284 284 284 284 284 284 284 283 283 283 283 283 283 283 282 282 281 281 280 279 278 277 277 276 273 269 265 261 260 259 258 259 261 263 265 269 272 275 278 280 282 283 283 284 284 284 285 285 284 283 281 279 278 278 278 278 278 278 279 279 280 281 282 283 283 284 284 285 285 285 286 286 287 287 288 288 288 288 289 289 289 288 288
285 286 286 286 286 286 286 285 285 285 285 285 285 284 284 284 284 284 283 282 282 281 280 278 277 275 272 270 268 265 262 261 260 260 262 263 266 269 272 275 277 280 283 286 287 287 287 286 285 284 284 283 281 279 278 277 277 277 278 278 278 279 279 280 281 282 283 283 284 284 285 285 286 286 287 287 288 288 288 289 289 289 289 289 289 288
286 286 287 286 286 286 286 286 285 285 285 285 285 285 284 284 284 283 283 282 282 281 280 278 275 271 267 265 264 264 263 262 262 263 264 266 269 272 275 277 280 283 287 289 290 290 288 286 285 284 283 282 281 279 278 277 277 277 278 278 278 279 279 280 281 282 282 283 283 284 285 285 286 286 287 288 288 288 289 289 289 289 289 289 289 289
286 286 286 286 285 285 285 285 285 284 284 284 284 283 283 283 282 282 281 281 280 279 278 277 274 270 266 263 262 263 264 264 265 266 267 269 271 274 277 280 283 286 289 291 291 289 287 285 284 283 282 281 280 279 278 277 277 277 277 278 278 279 279 280 280 281 282 282 283 284 284 285 286 287 287 288 288 289 289 289 289 289 289 289 289 288
284 284 284 284 284 284 283 283 283 283 283 282 282 281 281 280 280 279 279 278 278 277 276 275 273 271 268 265 263 263 263 265 266 268 269 271 273 275 278 281 284 287 290 290 290 288 285 283 282 282 282 281 280 279 278 278 277 277 277 278 278 278 279 280 280 281 282 282 283 284 285 286 286 287 288 288 289 289 289 289 289 289 289 289 288 288
282 282 282 282 281 281 281 281 281 281 281 280 280 279 279 278 278 277 276 276 275 274 274 273 272 270 269 267 266 265 265 265 266 267 269 271 273 275 277 280 283 285 287 288 287 286 284 282 281 281 281 281 280 279 279 278 278 277 277 277 277 278 278 279 280 282 282 283 284 285 285 286 287 287 288 288 289 289 289 289 289 289 288 288 288 287
279 279 279 279 279 279 279 279 279 279 278 279 278 278 277 277 276 276 275 274 274 273 272 271 270 269 268 268 267 266 266 266 266 267 269 270 272 274 276 279 281 283 284 285 285 284 283 281 280 280 280 280 280 280 279 279 278 277 277 276 276 277 278 279 281 282 283 284 285 286 286 287 287 288 288 288 289 289 289 289 289 288 288 288 287 287
277 277 276 276 277 277 278 278 278 277 278 278 278 277 277 276 276 276 276 275 274 273 272 271 270 269 268 268 268 268 268 268 268 269 270 271 272 274 276 278 279 281 282 282 283 282 281 280 278 278 278 279 280 281 281 280 279 278 277 276 276 277 278 281 282 284 285 286 286 286 287 287 287 288 288 288 288 288 288 288 288 288 287 287 286 286
274 274 274 274 275 276 276 277 277 277 277 277 277 277 277 277 277 277 276 276 275 274 273 272 271 271 270 270 269 270 270 271 271 272 272 273 274 275 277 278 279 280 281 281 281 281 280 278 277 277 278 279 281 281 282 282 281 280 279 278 278 279 281 283 284 285 286 286 286 286 287 287 287 288 288 288 288 288 288 288 287 287 287 286 285 285
272 273 274 274 274 275 275 276 276 276 276 277 277 277 276 276 277 277 277 276 275 275 274 274 273 273 273 273 273 272 273 273 274 275 275 276 276 277 278 279 280 281 281 281 280 279 277 277 276 277 279 281 282 283 283 283 282 281 280 280 280 282 283 284 285 285 286 286 286 286 287 287 287 287 287 287 287 287 287 287 286 286 285 285 284 284
273 273 274 275 275 275 275 275 276 276 276 276 276 276 276 276 276 277 277 277 276 276 276 276 276 276 276 276 276 276 276 276 276 277 278 278 278 278 279 280 281 282 282 281 279 277 275 275 276 278 280 282 283 284 284 283 283 282 281 282 283 284 284 285 285 285 285 285 286 286 286 286 287 287 287 287 287 286 286 285 285 284 284 283 283 283
274 274 274 274 275 275 275 275 275 275 276 275 275 276 276 276 276 276 277 277 277 277 278 278 278 278 278 279 279 280 280 279 279 279 279 279 279 279 280 281 282 282 282 280 278 275 274 274 277 279 281 283 284 285 285 284 284 284 284 284 284 284 284 284 284 284 284 285 285 286 286 286 286 286 286 286 286 285 285 284 284 283 283 282 282 282
274 274 274 274 274 274 274 274 274 275 275 274 274 274 275 276 276 276 276 277 278 279 279 280 280 280 280 280 281 282 282 282 281 280 280 279 279 279 280 282 283 283 281 279 276 274 273 275 278 281 283 284 285 285 285 285 285 285 285 284 284 284 283 283 284 284 285 285 286 286 286 286 286 286 286 285 285 284 284 283 283 283 282 282 282 282
273 273 273 273 273 273 273 273 274 274 274 274 274 274 274 275 276 276 277 278 278 279 280 281 281 281 282 282 282 282 283 283 282 282 281 280 280 280 282 283 284 283 281 279 276 275 277 279 282 284 285 286 286 287 287 286 286 286 285 285 284 284 285 285 285 286 286 286 286 286 286 286 286 286 285 285 284 284 283 283 283 283 282 282 282 282
273 274 274 274 274 274 274 274 274 274 274 274 274 274 275 276 277 277 278 279 279 280 280 281 282 282 283 283 283 283 283 283 284 284 283 282 282 282 283 283 284 283 282 281 281 281 283 285 286 287 287 287 287 287 287 287 286 286 286 286 286 286 286 287 287 287 287 287 286 286 286 286 285 285 285 284 284 283 283 283 283 283 283 283 283 283
275 276 276 277 277 277 276 276 276 276 276 276 276 276 277 278 278 279 279 280 280 281 281 282 282 283 283 284 284 284 284 284 285 286 285 284 282 282 282 283 283 284 284 285 285 286 287 288 288 288 287 287 287 287 287 286 286 286 286 287 287 287 287 287 287 287 287 286 286 286 286 285 285 285 284 284 284 284 283 284 284 284 284 284 283 283
279 280 280 280 281 280 280 280 279 279 279 279 279 279 279 280 280 281 281 281 281 282 282 283 283 283 283 283 283 283 283 284 285 285 286 285 282 281 281 282 283 284 285 286 287 287 287 287 287 286 286 286 286 285 285 285 286 286 286 287 287 287 287 287 287 287 286 286 286 286 285 285 285 285 284 284 284 284 284 284 284 284 284 284 284 283
281 281 282 283 283 282 282 282 282 282 282 281 281 281 282 282 282 282 282 282 282 283 283 284 284 283 283 282 282 282 281 282 282 284 285 284 283 281 280 281 282 283 285 286 286 286 286 286 285 285 284 284 284 284 284 285 285 286 286 286 287 287 287 287 286 286 286 286 286 286 285 285 285 285 285 285 285 285 285 285 285 285 285 285 284 284
280 281 282 282 283 283 283 283 283 283 283 283 283 283 282 282 282 282 283 283 284 284 285 285 285 284 283 283 282 282 281 281 281 281 282 282 282 281 280 280 281 282 284 284 284 284 284 283 283 283 283 283 283 284 284 285 285 286 286 286 287 287 286 286 286 286 286 286 286 286 286 286 286 286 286 286 286 286 286 286 286 286 285 285 284 284
278 279 280 280 281 282 282 282 283 283 283 283 283 283 282 282 283 283 283 284 285 286 287 287 287 287 286 285 284 283 283 283 282 282 281 281 280 279 279 280 281 282 283 283 282 282 282 281 282 282 282 283 283 284 285 285 286 286 287 287 287 287 287 286 286 286 286 286 286 286 286 286 286 287 287 287 287 287 287 286 286 286 285 285 284 283
277 278 278 279 280 281 281 282 282 282 282 283 283 282 282 282 283 283 284 284 285 286 287 288 288 288 288 287 286 286 285 285 284 283 282 281 280 279 278 279 280 281 282 282 282 281 281 282 282 282 283 284 284 285 286 286 287 287 287 287 287 287 286 286 286 286 286 286 286 286 286 287 287 287 287 287 287 287 287 287 286 286 285 284 284 283
276 277 277 278 279 280 281 281 282 282 282 282 282 282 282 282 283 283 284 284 285 286 287 288 289 289 289 289 288 288 287 287 285 284 283 282 280 278 278 278 279 280 281 281 281 281 282 282 283 284 284 285 285 286 286 286 287 287 287 287 286 286 286 286 286 286 286 286 286 287 287 287 288 288 288 288 288 288 287 287 287 286 285 285 284 284
276 277 277 278 278 279 280 281 281 282 282 282 281 282 282 282 283 283 284 285 286 286 287 288 288 289 289 290 290 290 289 289 287 286 284 282 280 279 278 278 278 279 280 280 281 282 282 283 284 285 285 286 286 286 286 286 286 286 286 286 286 286 286 286 286 286 286 286 287 287 288 288 288 288 288 288 288 288 288 288 287 287 286 286 285 285
276 277 277 278 278 279 280 281 281 282 282 282 282 282 282 283 283 284 285 286 286 287 288 288 288 289 289 290 291 291 291 291 290 288 286 284 282 280 279 278 278 279 280 281 282 282 283 284 285 285 286 286 286 286 286 286 286 286 286 286 286 286 286 286 286 286 287 287 287 288 288 288 288 289 289 289 289 288 288 288 287 287 287 287 287 287
276 277 278 278 279 280 281 281 282 282 282 282 282 282 283 284 285 285 286 287 288 288 288 289 289 289 290 291 292 293 292 292 291 290 288 286 284 282 281 280 280 280 281 282 283 283 284 285 285 286 286 286 286 286 286 286 285 285 285 285 285 286 286 286 286 287 287 287 288 288 288 288 289 289 289 289 288 288 288 288 287 287 287 287 287 288
276 277 278 279 280 281 281 281 281 282 282 282 283 283 284 285 286 287 288 289 290 290 290 290 290 290 291 292 293 294 293 293 292 291 289 288 286 284 283 282 282 282 283 284 284 285 285 286 286 287 287 287 287 286 286 286 286 286 286 286 286 286 286 286 287 287 287 287 288 288 288 288 288 288 288 288 287 287 287 287 287 287 287 288 288 288
277 278 279 280 281 282 282 282 282 282 282 283 284 284 286 287 288 289 290 291 291 291 291 291 292 292 292 292 293 293 292 292 291 290 289 287 286 285 284 284 284 284 285 285 286 286 287 287 287 287 287 287 287 287 287 287 286 286 286 286 286 286 286 286 287 287 287 287 287 287 287 287 287 287 287 286 286 286 287 287 287 288 288 288 288 289
278 279 281 282 282 283 283 283 283 283 283 283 284 285 286 288 290 291 292 292 292 292 292 293 293 292 292 292 291 291 291 290 290 289 288 287 286 286 286 286 286 286 286 287 287 288 288 289 289 289 288 288 288 288 287 287 287 287 287 287 287 286 286 286 286 286 286 286 286 286 286 286 286 286 286 286 286 286 287 287 288 288 288 289 289 290
279 280 281 282 283 283 283 283 283 283 283 283 284 285 287 289 291 292 293 293 293 293 293 293 292 292 291 291 290 290 290 289 289 288 288 287 287 287 288 287 288 288 288 289 289 289 289 290 290 290 289 289 288 288 288 287 287 287 286 286 286 286 286 286 286 285 285 285 285 285 285 285 285 285 285 286 286 287 287 288 288 288 289 289 290 290
279 280 281 281 282 282 282 282 282 282 283 283 284 286 288 290 291 293 293 294 294 294 293 293 292 292 291 291 290 290 290 289 289 288 287 287 287 288 289 289 289 290 290 290 290 290 290 291 291 290 290 289 288 288 287 287 287 286 286 286 286 285 285 285 284 284 283 283 283 283 283 284 284 285 285 286 286 287 287 288 288 288 289 289 289 290
280 280 281 281 281 281 281 282 282 283 283 284 286 287 289 291 292 294 294 294 294 294 293 292 292 292 291 291 291 291 291 290 289 288 287 287 287 288 289 290 290 291 291 292 292 292 292 291 291 291 290 290 289 289 289 288 288 287 287 286 286 286 285 284 284 283 283 282 282 283 283 284 284 285 285 286 286 286 287 287 288 288 288 289 289 289
280 281 282 282 282 282 282 282 283 284 285 286 287 289 291 293 294 295 295 294 293 293 292 292 292 292 292 292 293 293 292 291 290 289 288 288 289 289 290 291 291 292 293 293 294 294 294 293 291 291 291 291 291 291 291 290 290 289 288 288 287 286 285 284 284 283 283 283 283 283 284 284 284 284 285 285 285 285 286 286 286 287 287 288 288 288
281 282 282 282 283 283 283 284 284 285 286 287 289 290 292 294 294 294 294 293 292 292 291 291 292 292 293 293 294 294 293 292 290 289 289 289 290 291 291 292 292 293 293 293 294 294 294 294 293 292 292 292 292 292 292 291 291 290 289 288 288 287 286 285 285 284 284 284 284 284 284 284 284 284 284 284 284 284 285 285 285 286 286 287 287 287
281 282 282 283 283 284 284 284 285 286 287 288 290 291 293 293 294 293 292 292 291 291 291 291 292 292 293 293 293 293 292 291 290 289 289 290 291 291 292 293 293 293 293 293 294 294 295 295 295 295 294 294 294 294 294 293 292 291 290 290 290 289 288 287 286 286 285 285 285 284 284 284 284 283 283 283 283 284 284 284 284 285 285 286 286 287
281 282 283 283 284 285 285 286 286 287 289 290 292 293 293 293 293 292 291 291 291 291 291 292 292 293 293 292 292 292 291 290 289 289 290 290 291 292 293 294 294 294 294 295 295 295 295 296 296 297 296 296 295 294 295 294 293 293 293 293 292 292 291 290 289 287 287 286 286 285 285 285 284 284 284 284 284 284 284 284 285 285 285 286 286 287
283 284 285 285 286 286 287 287 288 289 291 292 293 294 294 293 292 292 291 291 291 292 292 292 293 293 293 293 292 292 291 290 289 289 290 291 292 293 294 294 295 295 296 296 296 296 296 297 297 297 297 297 297 296 296 296 296 296 296 295 294 293 292 291 290 289 288 287 287 287 286 286 286 285 285 285 285 285 285 285 285 286 286 286 286 287
285 286 287 287 287 287 288 289 289 290 291 292 293 293 293 292 292 292 292 292 292 292 293 293 293 293 293 293 292 292 291 290 290 290 291 292 293 294 295 295 296 296 297 297 297 297 297 297 297 298 298 299 299 299 299 298 298 298 298 297 296 294 293 292 290 290 289 289 288 288 288 287 287 287 287 287 287 287 287 287 287 287 287 287 287 287
286 286 286 286 286 287 288 289 290 290 291 291 291 291 291 291 291 291 292 292 292 293 293 293 293 292 292 292 292 291 291 291 291 291 292 293 294 295 296 296 297 297 297 297 297 297 298 298 299 299 299 300 301 302 302 302 301 300 299 297 296 295 294 293 292 291 291 291 290 290 289 289 289 289 289 289 289 289 289 289 289 288 288 288 287 287
283 283 284 284 285 286 287 288 289 289 290 290 290 290 290 290 290 291 291 292 292 293 293 292 292 292 291 291 291 291 291 292 292 293 293 294 295 296 296 297 297 297 297 297 298 298 299 300 301 301 302 302 303 303 303 303 303 301 299 297 296 295 295 294 294 293 293 293 292 292 292 291 291 291 291 291 291 291 291 291 291 290 290 289 289 288
282 282 283 284 285 285 286 287 287 288 288 288 288 288 289 289 290 291 291 292 292 292 293 292 292 292 291 291 292 292 292 293 293 294 295 295 296 296 297 297 297 297 297 298 298 299 300 301 302 303 304 304 304 304 304 304 304 302 300 299 297 296 296 296 296 296 295 295 295 295 294 294 294 294 294 294 294 294 294 293 293 292 292 292 291 291
282 282 283 284 284 285 286 286 287 287 287 288 288 288 288 289 289 290 291 292 292 292 292 292 292 292 292 292 293 293 294 294 295 295 296 296 296 296 296 297 297 297 298 298 300 301 302 303 303 304 305 305 305 305 305 305 305 304 302 301 300 299 299 299 299 299 298 297 297 297 297 297 296 296 296 296 296 296 296 296 295 295 295 294 294 294
282 282 283 284 285 286 286 287 287 288 288 288 288 288 288 289 289 290 290 291 291 291 292 292 292 292 293 293 294 294 295 295 295 296 296 296 296 296 297 297 298 298 299 300 301 302 303 304 305 305 306 306 306 306 306 306 306 305 304 303 303 302 301 301 301 301 300 300 299 299 299 299 299 299 298 298 298 298 298 298 297 297 296 296 295 295
282 282 283 285 286 287 287 288 288 288 288 288 288 288 288 288 288 289 290 290 291 291 291 291 292 292 293 294 294 295 295 295 296 296 296 296 297 297 298 299 299 300 301 302 303 304 304 305 306 307 307 307 307 307 308 308 307 306 306 305 305 304 304 304 303 302 302 302 302 301 301 301 301 300 300 300 300 299 299 298 298 297 297 296 296 295
282 283 284 285 286 287 287 288 288 287 287 287 287 287 287 287 288 289 290 290 290 291 291 292 292 293 294 295 295 295 295 295 296 296 296 297 298 299 300 301 302 303 303 304 305 305 306 307 307 308 308 308 308 309 309 309 309 308 308 307 306 306 306 306 305 304 304 304 303 303 303 303 302 302 302 301 301 301 300 299 299 298 298 297 297 296
282 284 285 285 286 287 288 287 287 286 286 286 286 286 287 287 288 289 290 290 291 291 292 293 294 294 295 296 296 295 296 296 296 296 297 298 299 300 301 302 303 304 304 305 305 306 307 308 308 309 309 309 310 310 311 310 310 309 309 308 308 307 307 307 307 307 306 305 305 305 305 304 303 303 303 302 302 301 301 300 300 299 299 298 298 297
283 284 285 286 286 286 287 286 286 285 285 285 285 286 287 288 289 289 290 291 291 292 293 294 295 296 296 297 296 296 296 296 296 297 298 299 300 301 302 303 303 304 304 305 306 307 308 308 309 309 309 310 310 311 311 311 310 310 310 309 309 308 308 308 308 307 307 307 306 306 305 305 304 304 303 303 302 302 302 302 301 301 300 300 300 299
285 285 286 286 286 286 286 286 285 285 285 286 286 287 288 289 289 290 291 292 293 294 295 296 297 297 297 297 297 297 297 297 298 299 300 300 301 302 302 303 303 304 304 305 306 307 308 309 309 310 310 311 311 311 311 311 311 310 310 310 309 309 308 308 308 308 307 307 307 306 306 305 305 305 304 304 303 303 303 303 303 302 302 302 301 301
287 287 287 287 287 287 287 287 287 287 287 287 288 288 289 290 291 292 293 293 294 295 296 297 297 298 298 298 298 298 298 299 300 301 301 302 302 302 302 302 303 304 305 306 306 307 308 309 310 310 311 311 311 311 311 311 311 311 310 310 310 309 309 309 308 308 308 307 307 308 307 307 307 307 306 305 305 304 304 304 304 304 304 303 303 302
287 288 288 288 288 288 288 288 288 288 289 289 289 290 291 292 292 293 294 295 296 296 297 298 298 298 298 298 299 299 300 301 301 302 302 302 302 302 302 302 303 304 305 306 306 307 308 309 310 311 312 312 311 311 311 311 311 311 311 311 310 310 310 310 309 309 309 309 309 309 309 309 308 308 307 306 306 305 305 305 305 305 305 304 303 303
285 285 286 286 287 287 288 288 288 288 289 289 290 291 292 293 294 294 295 296 296 297 298 298 299 299 299 299 300 301 302 302 302 302 302 302 302 302 303 303 304 305 305 306 307 307 309 310 312 313 313 313 312 312 312 313 313 312 312 312 311 311 311 311 310 310 310 310 310 310 310 309 309 309 308 308 307 306 306 306 306 306 305 305 304 303
283 283 284 285 285 286 287 287 288 288 289 290 291 292 293 294 294 295 295 296 297 298 298 299 299 300 300 301 302 302 303 303 303 303 302 302 302 303 304 305 305 306 306 307 308 309 310 312 313 314 315 314 313 313 314 314 314 313 313 312 312 312 312 311 311 311 311 310 311 311 310 310 310 310 309 309 308 307 307 306 306 306 306 305 304 303
Height
3054 3055 3055 3056 3056 3055 3055 3055 3055 3055 3054 3054 3054 3054 3053 3053 3052 3052 3052 3052 3051 3051 3050 3050 3049 3049 3049 3048 3048 3048 3047 3046 3046 3045 3044 3044 3043 3042 3042 3041 3041 3040 3039 3038 3038 3037 3037 3036 3035 3034 3034 3033 3033 3033 3032 3031 3030 3030 3029 3028 3028 3028 3027 3026 3025 3025 3024 3023 3022 3022 3021 3020 3019 3018 3018 3017 3016 3015 3015 3014 3013 3012 3011 3011 3010 3009
3050 3051 3051 3052 3052 3052 3051 3051 3052 3052 3051 3050 3050 3050 3050 3049 3048 3048 3048 3048 3047 3047 3046 3046 3046 3046 3045 3045 3045 3044 3044 3043 3042 3042 3041 3040 3039 3039 3038 3038 3037 3036 3035 3035 3034 3033 3033 3032 3031 3030 3030 3029 3029 3029 3028 3028 3027 3026 3026 3025 3024 3024 3023 3023 3022 3021 3020 3020 3019 3018 3017 3016 3016 3015 3014 3013 3012 3012 3011 3010 3009 3008 3008 3007 3006 3005
3048 3047 3047 3048 3048 3048 3048 3048 3048 3048 3048 3047 3046 3046 3046 3046 3045 3044 3044 3044 3043 3043 3043 3042 3042 3042 3042 3042 3041 3041 3040 3039 3039 3038 3038 3037 3036 3035 3034 3034 3033 3032 3032 3031 3030 3029 3029 3028 3028 3027 3026 3026 3026 3025 3024 3024 3023 3023 3022 3022 3021 3020 3020 3019 3018 3018 3017 3016 3015 3014 3013 3013 3012 3011 3010 3009 3008 3008 3007 3006 3005 3004 3003 3003 3002 3001
3045 3044 3044 3044 3045 3045 3044 3044 3044 3044 3044 3043 3043 3042 3042 3042 3042 3041 3041 3040 3040 3039 3039 3038 3038 3038 3038 3038 3038 3037 3037 3036 3035 3034 3034 3033 3032 3031 3030 3030 3029 3028 3028 3027 3026 3026 3025 3024 3024 3023 3023 3023 3022 3022 3021 3020 3020 3019 3018 3018 3017 3017 3016 3015 3015 3014 3013 3012 3012 3011 3010 3009 3008 3007 3006 3005 3004 3003 3003 3002 3001 3000 2999 2999 2998 2997
3042 3042 3041 3041 3041 3041 3041 3041 3040 3040 3040 3039 3039 3039 3038 3038 3038 3038 3037 3037 3036 3036 3035 3035 3035 3034 3034 3033 3033 3033 3033 3032 3031 3030 3029 3029 3028 3028 3027 3026 3025 3024 3024 3023 3023 3022 3021 3021 3020 3019 3019 3019 3018 3018 3017 3017 3016 3015 3015 3014 3013 3013 3012 3012 3011 3010 3009 3008 3008 3007 3006 3005 3004 3003 3003 3002 3001 3000 2999 2998 2997 2996 2995 2995 2994 2993
3039 3038 3038 3038 3037 3037 3037 3037 3037 3036 3036 3035 3035 3035 3034 3034 3034 3033 3033 3033 3033 3032 3032 3031 3031 3031 3030 3029 3029 3028 3028 3028 3027 3026 3026 3025 3024 3023 3023 3023 3022 3021 3020 3020 3019 3018 3018 3017 3016 3016 3015 3015 3014 3014 3013 3013 3012 3012 3011 3010 3010 3009 3008 3008 3007 3006 3006 3005 3004 3003 3002 3001 3000 2999 2998 2998 2997 2996 2995 2994 2993 2992 2991 2991 2990 2989
3035 3035 3034 3034 3033 3033 3033 3033 3033 3032 3032 3031 3031 3030 3030 3030 3030 3029 3029 3029 3028 3028 3028 3027 3027 3027 3026 3026 3025 3024 3024 3023 3023 3022 3022 3021 3020 3020 3019 3019 3018 3018 3017 3016 3015 3015 3014 3013 3013 3012 3012 3011 3011 3010 3009 3009 3008 3008 3007 3006 3006 3005 3004 3004 3003 3003 3002 3001 3000 2999 2998 2998 2997 2996 2994 2993 2993 2992 2991 2990 2989 2988 2988 2987 2986 2985
3031 3031 3031 3031 3030 3029 3029 3029 3029 3028 3028 3028 3027 3026 3026 3026 3026 3026 3025 3025 3024 3024 3024 3023 3023 3022 3022 3022 3021 3021 3020 3019 3019 3018 3018 3017 3017 3016 3016 3015 3015 3014 3013 3012 3012 3011 3010 3009 3009 3008 3008 3007 3007 3006 3005 3005 3004 3003 3003 3003 3002 3001 3000 3000 2999 2998 2998 2997 2996 2995 2994 2993 2993 2992 2991 2990 2989 2988 2987 2986 2985 2984 2983 2983 2982 2981
3028 3027 3027 3027 3027 3026 3026 3025 3024 3025 3025 3024 3023 3023 3023 3023 3023 3022 3022 3022 3021 3021 3020 3020 3019 3018 3018 3018 3018 3017 3016 3015 3015 3014 3014 3014 3013 3013 3012 3012 3011 3010 3009 3008 3008 3007 3006 3005 3005 3004 3004 3003 3003 3002 3001 3001 3000 3000 2999 2998 2998 2997 2996 2996 2995 2995 2994 2993 2993 2992 2991 2989 2988 2988 2987 2986 2985 2984 2983 2982 2981 2980 2979 2978 2978 2977
3024 3024 3023 3023 3023 3023 3023 3022 3021 3021 3022 3021 3020 3019 3019 3019 3019 3019 3018 3018 3017 3017 3018 3017 3016 3015 3014 3014 3014 3013 3013 3012 3011 3010 3010 3010 3009 3008 3008 3008 3007 3006 3005 3004 3004 3003 3002 3002 3001 3001 3000 2999 2999 2998 2998 2997 2996 2996 2996 2995 2994 2993 2993 2992 2992 2991 2990 2989 2988 2988 2987 2985 2984 2983 2983 2982 2981 2980 2979 2978 2977 2976 2975 2975 2974 2973
3020 3020 3020 3019 3019 3019 3019 3019 3018 3017 3018 3018 3017 3016 3016 3016 3016 3016 3015 3013 3013 3014 3014 3013 3012 3012 3011 3010 3010 3009 3009 3008 3007 3006 3006 3006 3005 3004 3004 3003 3003 3002 3001 3001 3000 2999 2998 2998 2997 2997 2996 2996 2995 2995 2994 2993 2993 2993 2992 2991 2991 2990 2989 2989 2988 2987 2986 2985 2984 2983 2983 2982 2980 2979 2978 2978 2977 2976 2975 2974 2973 2972 2972 2971 2970 2969
3017 3017 3017 3016 3016 3015 3016 3016 3015 3014 3014 3015 3014 3013 3012 3012 3013 3013 3012 3010 3009 3010 3011 3010 3009 3008 3008 3008 3006 3005 3004 3004 3004 3003 3002 3002 3001 3000 3000 2999 2998 2998 2997 2997 2996 2995 2994 2994 2993 2993 2993 2992 2992 2991 2991 2990 2989 2989 2988 2988 2987 2987 2986 2985 2984 2983 2982 2981 2980 2979 2978 2978 2977 2975 2974 2973 2973 2972 2971 2970 2969 2968 2967 2967 2966 2965
3013 3013 3013 3013 3013 3013 3013 3013 3012 3011 3011 3011 3011 3010 3009 3009 3009 3009 3009 3007 3006 3006 3007 3007 3005 3004 3004 3004 3003 3002 3001 3000 3000 2999 2999 2998 2997 2997 2996 2996 2994 2994 2993 2993 2993 2991 2991 2990 2990 2990 2989 2988 2988 2988 2987 2987 2986 2985 2985 2984 2983 2983 2982 2981 2980 2979 2978 2977 2976 2975 2974 2973 2972 2971 2970 2969 2968 2968 2967 2966 2965 2964 2963 2963 2962 2961
3010 3011 3011 3010 3010 3009 3009 3009 3009 3008 3008 3008 3008 3007 3006 3006 3006 3006 3006 3004 3003 3003 3004 3004 3002 3001 3000 3001 3000 2999 2998 2997 2996 2995 2995 2994 2993 2993 2993 2992 2991 2990 2990 2990 2989 2988 2987 2987 2987 2986 2985 2985 2985 2984 2983 2983 2982 2982 2981 2980 2979 2979 2978 2977 2976 2975 2974 2973 2972 2971 2970 2969 2968 2967 2966 2965 2964 2963 2962 2962 2961 2960 2959 2958 2958 2957
3008 3008 3008 3007 3007 3006 3007 3007 3006 3005 3004 3004 3004 3004 3003 3003 3002 3002 3003 3002 3000 3000 3001 3001 2999 2998 2997 2997 2997 2996 2995 2994 2993 2992 2992 2991 2990 2989 2989 2989 2988 2987 2987 2987 2986 2985 2983 2983 2983 2983 2982 2982 2981 2980 2980 2979 2978 2978 2977 2976 2975 2974 2973 2973 2972 2971 2970 2969 2968 2967 2966 2965 2964 2963 2962 2961 2960 2959 2958 2957 2957 2956 2955 2954 2954 2953
3005 3005 3004 3004 3003 3003 3003 3003 3003 3002 3001 3001 3001 3001 3001 3000 2999 2999 2999 2998 2998 2997 2997 2997 2996 2995 2994 2993 2993 2993 2993 2991 2989 2988 2988 2988 2987 2986 2986 2986 2985 2984 2983 2984 2983 2982 2981 2980 2980 2979 2979 2978 2977 2977 2976 2975 2974 2973 2973 2972 2971 2970 2969 2968 2968 2967 2966 2964 2963 2962 2961 2960 2959 2958 2957 2956 2955 2955 2954 2953 2953 2952 2951 2950 2950 2949
3002 3002 3001 3000 3000 3000 2999 2999 2999 2998 2998 2998 2997 2997 2997 2997 2996 2996 2996 2995 2994 2994 2994 2993 2993 2992 2991 2990 2990 2990 2990 2989 2987 2985 2985 2985 2985 2983 2983 2983 2982 2981 2980 2980 2980 2979 2978 2977 2977 2976 2975 2975 2974 2973 2972 2971 2970 2969 2969 2968 2967 2966 2965 2964 2963 2962 2961 2960 2959 2958 2957 2955 2954 2953 2953 2952 2951 2950 2950 2949 2948 2948 2947 2946 2946 2945
2998 2998 2998 2998 2997 2996 2996 2996 2996 2995 2995 2994 2994 2994 2994 2993 2993 2993 2992 2992 2991 2991 2990 2990 2989 2989 2988 2987 2985 2985 2986 2986 2984 2982 2982 2982 2982 2981 2980 2979 2978 2978 2977 2977 2976 2975 2974 2974 2973 2973 2972 2971 2970 2969 2968 2968 2967 2966 2965 2964 2963 2962 2961 2960 2959 2958 2956 2955 2954 2953 2952 2951 2950 2949 2948 2948 2947 2946 2946 2945 2944 2943 2943 2943 2942 2941
2995 2996 2996 2995 2994 2993 2993 2993 2993 2993 2992 2992 2991 2991 2991 2990 2990 2990 2989 2988 2988 2988 2987 2986 2985 2985 2985 2984 2982 2981 2981 2982 2981 2979 2978 2979 2979 2978 2977 2976 2975 2974 2973 2973 2973 2972 2971 2970 2970 2969 2969 2968 2967 2966 2965 2964 2963 2962 2961 2960 2959 2958 2957 2956 2954 2953 2952 2951 2949 2948 2947 2946 2945 2945 2944 2943 2943 2942 2941 2941 2940 2939 2939 2938 2938 2937
2993 2993 2993 2993 2992 2991 2991 2990 2990 2990 2990 2989 2988 2988 2988 2987 2987 2987 2986 2985 2985 2984 2984 2983 2982 2981 2981 2980 2979 2978 2978 2978 2977 2976 2975 2975 2976 2975 2974 2973 2972 2971 2970 2970 2969 2969 2968 2967 2967 2966 2966 2965 2963 2963 2961 2960 2959 2958 2957 2956 2955 2954 2953 2951 2950 2948 2947 2946 2945 2944 2943 2942 2941 2941 2940 2939 2938 2938 2937 2937 2936 2936 2935 2934 2934 2933
2990 2990 2990 2990 2989 2989 2988 2988 2988 2988 2987 2987 2986 2985 2985 2984 2984 2984 2983 2983 2982 2981 2981 2980 2979 2978 2978 2977 2976 2975 2974 2974 2973 2972 2971 2972 2972 2971 2971 2971 2969 2968 2968 2967 2967 2966 2965 2964 2963 2963 2962 2961 2960 2959 2958 2956 2955 2954 2953 2952 2951 2949 2948 2947 2946 2944 2943 2942 2941 2940 2939 2938 2937 2937 2936 2935 2934 2934 2933 2933 2932 2932 2931 2930 2930 2929
2988 2987 2987 2987 2987 2986 2985 2985 2985 2985 2984 2984 2983 2982 2982 2982 2981 2981 2980 2980 2979 2979 2978 2978 2977 2976 2975 2974 2973 2972 2971 2971 2970 2969 2968 2968 2968 2968 2967 2967 2966 2965 2964 2964 2963 2963 2962 2961 2960 2959 2958 2958 2956 2955 2954 2953 2951 2950 2949 2948 2947 2945 2944 2943 2941 2940 2939 2938 2937 2936 2935 2934 2933 2933 2932 2931 2930 2930 2929 2928 2928 2928 2927 2926 2926 2925
2985 2985 2984 2984 2984 2984 2983 2982 2982 2982 2981 2981 2980 2979 2979 2979 2978 2978 2977 2977 2977 2976 2975 2975 2974 2973 2973 2972 2971 2969 2968 2968 2967 2966 2964 2964 2964 2964 2964 2963 2963 2962 2961 2961 2960 2959 2958 2958 2957 2956 2955 2954 2953 2952 2950 2949 2948 2947 2946 2944 2943 2942 2940 2939 2938 2936 2935 2934 2933 2932 2931 2930 2929 2928 2928 2927 2926 2926 2925 2924 2924 2923 2923 2922 2921 2921
2983 2982 2982 2982 2981 2981 2980 2980 2979 2979 2978 2978 2978 2977 2976 2976 2976 2975 2975 2974 2974 2973 2973 2972 2971 2970 2969 2969 2968 2967 2965 2965 2964 2963 2961 2960 2960 2960 2960 2959 2959 2958 2958 2958 2957 2956 2955 2955 2954 2953 2952 2951 2949 2948 2947 2946 2945 2943 2942 2941 2939 2938 2937 2935 2934 2933 2931 2930 2929 2928 2927 2927 2926 2925 2924 2923 2923 2922 2921 2920 2919 2919 2918 2918 2917 2916
2980 2980 2979 2979 2978 2978 2978 2977 2977 2976 2976 2975 2974 2974 2973 2973 2973 2973 2972 2972 2971 2971 2970 2969 2968 2968 2967 2966 2965 2963 2963 2962 2961 2960 2958 2957 2957 2957 2957 2956 2955 2954 2954 2954 2954 2953 2952 2951 2951 2950 2948 2947 2946 2945 2944 2943 2941 2940 2939 2938 2936 2935 2933 2932 2931 2929 2928 2927 2926 2925 2924 2923 2922 2921 2921 2920 2919 2918 2917 2916 2915 2915 2914 2913 2912 2912
2978 2977 2977 2976 2976 2976 2975 2975 2974 2973 2973 2973 2972 2971 2971 2971 2970 2970 2970 2969 2969 2968 2967 2966 2965 2964 2964 2963 2962 2961 2960 2959 2958 2957 2956 2955 2954 2954 2954 2953 2952 2951 2951 2951 2950 2950 2948 2948 2948 2947 2945 2944 2943 2942 2940 2939 2938 2937 2936 2934 2933 2932 2930 2929 2928 2926 2925 2923 2923 2922 2921 2920 2919 2918 2917 2916 2915 2914 2913 2913 2912 2911 2910 2909 2908 2908
2975 2975 2975 2974 2974 2973 2973 2973 2972 2971 2971 2970 2969 2969 2968 2968 2968 2968 2967 2967 2966 2965 2964 2963 2963 2962 2961 2960 2959 2958 2958 2956 2955 2954 2953 2952 2951 2951 2951 2950 2949 2948 2947 2947 2947 2946 2945 2945 2944 2944 2943 2941 2940 2939 2938 2936 2935 2934 2933 2931 2930 2928 2927 2926 2924 2923 2922 2920 2919 2918 2917 2916 2915 2914 2913 2913 2911 2910 2909 2909 2908 2907 2906 2905 2904 2903
2973 2973 2973 2972 2972 2971 2971 2970 2970 2969 2968 2968 2967 2967 2966 2966 2966 2965 2965 2964 2963 2963 2962 2961 2960 2959 2958 2958 2957 2956 2955 2954 2953 2952 2950 2949 2948 2948 2948 2946 2945 2944 2943 2943 2943 2943 2942 2942 2941 2941 2940 2938 2937 2936 2935 2933 2932 2931 2929 2928 2927 2925 2924 2923 2921 2920 2919 2918 2916 2915 2914 2913 2912 2911 2910 2909 2908 2907 2906 2905 2904 2903 2902 2901 2900 2899
2971 2971 2971 2970 2970 2969 2969 2968 2968 2967 2967 2966 2965 2965 2964 2964 2963 2963 2962 2961 2961 2960 2959 2958 2957 2956 2956 2955 2954 2954 2953 2952 2950 2949 2947 2946 2945 2944 2944 2943 2942 2941 2940 2939 2939 2939 2939 2939 2938 2938 2937 2936 2935 2933 2932 2931 2929 2928 2926 2925 2924 2923 2921 2920 2918 2917 2916 2914 2913 2912 2911 2909 2908 2907 2906 2905 2904 2903 2902 2901 2900 2899 2898 2897 2896 2896
2969 2969 2968 2968 2968 2967 2967 2966 2966 2965 2964 2964 2963 2963 2962 2962 2961 2960 2959 2959 2958 2957 2956 2955 2955 2954 2953 2952 2952 2951 2951 2949 2948 2946 2944 2943 2942 2942 2941 2940 2939 2938 2937 2936 2935 2936 2937 2937 2936 2934 2934 2933 2932 2931 2930 2928 2926 2925 2923 2922 2921 2920 2918 2917 2915 2914 2913 2911 2910 2908 2907 2906 2905 2904 2903 2902 2901 2900 2899 2898 2897 2895 2894 2893 2893 2892
2967 2967 2966 2966 2966 2965 2964 2964 2963 2963 2962 2962 2961 2961 2960 2959 2958 2958 2957 2956 2955 2954 2953 2953 2952 2951 2950 2949 2949 2948 2948 2946 2945 2943 2942 2940 2940 2939 2939 2938 2937 2936 2934 2933 2932 2931 2932 2933 2933 2932 2931 2930 2929 2928 2927 2925 2923 2922 2920 2919 2918 2917 2915 2914 2912 2911 2909 2908 2907 2905 2904 2903 2902 2901 2900 2899 2898 2897 2896 2895 2893 2892 2891 2890 2889 2889
2964 2964 2964 2963 2963 2963 2962 2962 2961 2960 2960 2959 2959 2958 2957 2957 2956 2955 2954 2953 2952 2951 2950 2950 2949 2948 2948 2947 2946 2945 2945 2943 2942 2940 2938 2938 2937 2937 2936 2935 2934 2933 2932 2930 2929 2928 2928 2929 2929 2929 2928 2927 2926 2925 2924 2922 2920 2918 2917 2916 2915 2913 2912 2911 2909 2908 2906 2905 2904 2903 2901 2900 2899 2898 2897 2896 2895 2894 2893 2892 2890 2889 2888 2887 2886 2885
2962 2962 2961 2961 2960 2960 2959 2959 2958 2958 2957 2957 2956 2955 2955 2954 2953 2952 2951 2950 2949 2948 2948 2947 2946 2946 2945 2944 2943 2943 2942 2941 2939 2937 2935 2935 2934 2934 2934 2933 2932 2931 2929 2928 2927 2925 2924 2924 2925 2925 2924 2923 2923 2922 2920 2919 2917 2916 2914 2913 2912 2911 2909 2908 2906 2904 2903 2902 2901 2900 2898 2898 2896 2895 2894 2893 2892 2891 2890 2889 2888 2886 2885 2884 2883 2882
2959 2959 2959 2958 2958 2957 2957 2956 2956 2955 2955 2954 2953 2953 2952 2951 2950 2949 2948 2948 2947 2946 2945 2944 2943 2943 2942 2941 2941 2940 2939 2938 2936 2934 2933 2932 2932 2931 2931 2930 2929 2928 2927 2926 2924 2923 2922 2921 2921 2921 2920 2920 2920 2918 2917 2916 2914 2913 2911 2910 2908 2907 2906 2904 2903 2901 2900 2899 2898 2897 2896 2895 2893 2893 2892 2890 2889 2888 2888 2886 2885 2884 2882 2881 2880 2878
2957 2957 2956 2956 2955 2954 2954 2953 2953 2952 2952 2951 2950 2949 2949 2948 2947 2947 2946 2945 2944 2943 2943 2942 2941 2940 2939 2939 2938 2938 2937 2936 2934 2932 2931 2930 2929 2929 2928 2928 2927 2925 2924 2923 2922 2921 2919 2918 2918 2917 2916 2916 2916 2915 2914 2912 2911 2909 2908 2907 2905 2904 2903 2901 2900 2898 2897 2896 2895 2894 2893 2892 2891 2889 2888 2888 2887 2886 2884 2883 2882 2881 2880 2878 2877 2876
2955 2954 2954 2953 2953 2952 2951 2951 2950 2949 2949 2948 2947 2947 2946 2945 2944 2944 2943 2943 2942 2941 2940 2939 2938 2938 2937 2936 2936 2935 2934 2933 2932 2930 2928 2928 2927 2926 2926 2925 2924 2923 2921 2920 2919 2918 2917 2916 2915 2914 2913 2912 2912 2912 2911 2910 2908 2907 2905 2904 2902 2901 2899 2898 2897 2895 2894 2893 2892 2891 2890 2889 2888 2887 2886 2884 2883 2883 2881 2880 2879 2878 2877 2875 2874 2873
2952 2952 2951 2951 2950 2949 2949 2948 2948 2947 2946 2945 2944 2944 2943 2942 2942 2941 2940 2940 2939 2938 2938 2937 2936 2935 2935 2934 2933 2933 2932 2931 2929 2928 2927 2925 2924 2924 2923 2923 2922 2920 2919 2918 2916 2915 2914 2913 2912 2911 2910 2909 2908 2908 2907 2907 2905 2904 2902 2901 2899 2898 2897 2895 2894 2892 2891 2890 2889 2888 2887 2886 2884 2883 2882 2881 2880 2879 2878 2877 2876 2875 2873 2872 2871 2870
2950 2949 2949 2948 2948 2947 2947 2946 2945 2944 2944 2943 2942 2942 2941 2940 2939 2939 2938 2938 2937 2936 2936 2935 2934 2933 2933 2932 2931 2930 2929 2928 2927 2926 2924 2923 2922 2922 2921 2920 2919 2918 2917 2915 2914 2913 2911 2910 2909 2908 2907 2907 2906 2905 2904 2903 2902 2901 2899 2898 2897 2895 2894 2892 2891 2889 2888 2887 2886 2885 2884 2883 2881 2880 2879 2878 2877 2876 2875 2874 2873 2872 2870 2869 2868 2867
2948 2947 2947 2946 2946 2945 2944 2944 2943 2943 2942 2941 2940 2939 2938 2938 2937 2936 2936 2935 2935 2934 2933 2933 2932 2932 2931 2930 2929 2928 2927 2926 2925 2923 2923 2921 2920 2919 2918 2918 2917 2915 2914 2913 2911 2910 2909 2908 2906 2905 2904 2903 2903 2902 2901 2900 2898 2897 2896 2895 2894 2893 2891 2889 2888 2887 2885 2884 2883 2882 2881 2879 2878 2877 2876 2875 2873 2873 2871 2870 2869 2868 2867 2865 2864 2863
2945 2945 2944 2944 2943 2943 2942 2942 2941 2940 2940 2939 2938 2937 2936 2936 2935 2934 2934 2933 2933 2932 2931 2931 2930 2930 2929 2928 2927 2926 2925 2923 2923 2921 2920 2919 2918 2917 2916 2915 2914 2913 2912 2910 2909 2908 2906 2905 2904 2903 2902 2900 2899 2899 2898 2898 2896 2894 2893 2891 2890 2890 2889 2887 2885 2884 2883 2881 2880 2878 2877 2876 2875 2873 2872 2871 2870 2869 2868 2866 2865 2864 2863 2861 2860 2858
2943 2943 2942 2942 2941 2941 2940 2939 2939 2938 2938 2937 2936 2935 2934 2933 2933 2933 2932 2931 2931 2930 2929 2929 2928 2928 2927 2926 2925 2924 2923 2921 2920 2919 2918 2917 2916 2915 2914 2913 2912 2911 2909 2908 2907 2905 2904 2903 2902 2900 2899 2898 2897 2896 2895 2895 2893 2891 2889 2888 2887 2886 2885 2884 2883 2881 2879 2878 2877 2875 2874 2873 2871 2870 2869 2868 2867 2865 2864 2863 2861 2860 2859 2858 2856 2854
2940 2940 2939 2939 2939 2938 2938 2937 2937 2936 2935 2934 2934 2933 2933 2932 2931 2931 2930 2929 2929 2928 2928 2927 2926 2926 2925 2924 2923 2922 2920 2919 2918 2917 2916 2915 2914 2913 2912 2911 2909 2908 2907 2906 2905 2903 2902 2901 2899 2898 2897 2895 2894 2893 2892 2892 2890 2889 2887 2885 2883 2883 2882 2882 2880 2878 2876 2875 2874 2873 2871 2869 2868 2867 2865 2864 2863 2862 2860 2859 2858 2856 2855 2853 2852 2851
2938 2938 2937 2937 2936 2936 2936 2935 2934 2934 2933 2933 2932 2931 2931 2930 2929 2929 2928 2927 2927 2926 2925 2925 2924 2923 2923 2922 2921 2920 2918 2917 2916 2915 2914 2913 2911 2910 2909 2908 2907 2906 2904 2903 2902 2901 2900 2899 2897 2896 2894 2893 2892 2890 2889 2888 2888 2886 2884 2883 2881 2879 2878 2878 2877 2876 2873 2872 2870 2869 2868 2866 2864 2863 2862 2861 2859 2858 2857 2855 2854 2853 2851 2850 2848 2846
2936 2935 2935 2935 2934 2934 2933 2933 2933 2932 2931 2931 2930 2929 2929 2928 2928 2927 2926 2925 2925 2924 2923 2923 2922 2921 2920 2920 2919 2918 2916 2915 2914 2913 2912 2910 2909 2908 2907 2906 2904 2903 2902 2901 2900 2899 2898 2896 2895 2893 2892 2890 2889 2888 2886 2885 2884 2883 2882 2880 2878 2876 2875 2874 2873 2872 2870 2869 2868 2866 2864 2862 2861 2859 2858 2857 2856 2854 2853 2851 2850 2848 2847 2846 2844 2842
2934 2933 2933 2933 2932 2932 2932 2931 2930 2930 2929 2929 2928 2928 2927 2926 2926 2925 2924 2923 2923 2922 2921 2920 2920 2919 2918 2918 2917 2915 2914 2913 2912 2911 2910 2908 2907 2906 2904 2903 2902 2901 2900 2898 2898 2896 2895 2894 2893 2891 2890 2888 2887 2885 2884 2882 2881 2880 2879 2877 2876 2874 2872 2871 2870 2868 2867 2865 2864 2863 2861 2859 2857 2855 2854 2853 2852 2850 2849 2847 2846 2844 2843 2841 2839 2838
2932 2932 2931 2931 2931 2930 2930 2929 2929 2928 2928 2927 2927 2926 2925 2925 2924 2923 2923 2922 2921 2920 2919 2918 2918 2917 2916 2915 2914 2913 2912 2911 2910 2909 2908 2906 2905 2903 2903 2901 2900 2899 2898 2897 2895 2894 2893 2892 2890 2889 2888 2886 2884 2883 2882 2880 2878 2877 2876 2874 2873 2871 2870 2868 2867 2865 2863 2862 2860 2859 2858 2856 2854 2852 2850 2849 2847 2846 2845 2843 2841 2839 2838 2836 2835 2833
2930 2930 2929 2929 2929 2928 2928 2927 2927 2926 2926 2925 2925 2924 2923 2923 2922 2921 2920 2920 2919 2918 2917 2916 2916 2915 2914 2913 2912 2911 2910 2909 2908 2907 2906 2904 2903 2902 2901 2899 2898 2897 2896 2895 2893 2892 2891 2890 2888 2887 2885 2883 2882 2881 2880 2878 2876 2874 2873 2871 2870 2868 2867 2866 2864 2863 2861 2859 2857 2856 2854 2852 2850 2848 2846 2844 2843 2842 2840 2839 2837 2835 2833 2832 2830 2828
2928 2928 2928 2927 2927 2926 2926 2925 2925 2924 2924 2923 2923 2922 2922 2921 2920 2919 2918 2918 2917 2916 2915 2914 2914 2913 2912 2911 2910 2909 2908 2908 2906 2905 2904 2903 2901 2900 2899 2898 2896 2895 2894 2893 2891 2890 2889 2888 2887 2885 2883 2882 2880 2878 2878 2876 2874 2872 2870 2869 2867 2866 2864 2863 2861 2860 2858 2856 2854 2853 2851 2848 2846 2844 2842 2840 2838 2837 2836 2834 2833 2831 2829 2827 2825 2823
2927 2926 2926 2925 2925 2924 2924 2923 2923 2923 2922 2922 2921 2920 2920 2919 2918 2917 2917 2916 2915 2914 2913 2913 2912 2911 2910 2909 2908 2907 2906 2905 2904 2903 2902 2901 2900 2898 2897 2896 2895 2893 2892 2891 2889 2888 2887 2886 2885 2883 2882 2880 2878 2876 2875 2874 2872 2870 2868 2866 2864 2863 2861 2860 2858 2857 2855 2853 2851 2849 2847 2845 2843 2840 2838 2835 2834 2833 2832 2830 2828 2827 2825 2823 2821 2819
2925 2925 2924 2924 2923 2923 2922 2922 2921 2921 2920 2920 2919 2918 2918 2917 2916 2916 2915 2914 2913 2912 2912 2911 2910 2909 2908 2908 2907 2905 2904 2903 2902 2901 2900 2899 2898 2897 2895 2894 2893 2891 2890 2889 2888 2886 2885 2884 2883 2882 2880 2878 2876 2874 2873 2871 2870 2868 2866 2864 2862 2860 2858 2857 2855 2853 2852 2849 2848 2846 2844 2842 2839 2837 2834 2832 2829 2828 2827 2826 2824 2823 2821 2819 2817 2814
2923 2923 2923 2922 2922 2921 2921 2920 2919 2919 2918 2918 2917 2917 2916 2915 2914 2914 2913 2912 2911 2911 2910 2909 2908 2908 2907 2906 2905 2903 2903 2902 2900 2899 2898 2897 2896 2894 2893 2892 2890 2889 2888 2887 2885 2884 2883 2882 2881 2880 2879 2877 2874 2872 2870 2869 2867 2865 2863 2862 2860 2858 2855 2853 2852 2850 2848 2846 2844 2842 2840 2838 2836 2833 2831 2828 2825 2823 2822 2821 2820 2819 2817 2815 2812 2810